Weather in Yangel

Russia / Irkutsk Oblast     57°04′51″N   103°38′53″E
temp.,
°C
wind,
m/s
gust,
m/s
humid.,
%
clouds,
%
prec.,
mm/h
press.,
hPa
HPBL,
m
15 may, sat
sat1523:00+6sse225581 0.0 101026
02:00+5ssw31255100 0.0 1010322
05:00+4wnw3993100 0.6 1011730
08:00+3w598699 1.9 1013923
11:00+5w5859100 0.3 10141670
14:00+8wsw51044100 0.4 10122057
17:00+5sw51187100 0.6 10101033
20:00+4wsw51395100 1.9 10101084
16 may, sun
sun1623:00+6wsw51293100 0.6 10081210
02:00+4nw4108752 1.4 1009506
05:000w239546 0.0 101171
08:00+4nw367634 0.0 1012930
11:00+7wnw4646100 0.0 10121670
14:00+10wnw4632100 0.0 10111987
17:00+10wnw4728100 0.0 10102006
20:00+7nw3639100 0.0 1010357
17 may, mon
mon1723:00+4wsw115598 0.0 101019
02:000w117714 0.0 100910
05:00−1wnw1170100 0.0 100910
08:00+4wnw2445100 0.0 1010436
11:00+7nw4631100 0.0 10092175
14:00+10nw5824100 0.0 10092863
17:00+10nw5922100 0.0 10092996
20:00+7nnw473166 0.0 1010723
18 may, tue
tue1823:00+2n114275 0.0 101210
02:000ssw1148100 0.0 101210
05:00−2ssw1157100 0.0 101210
08:00+4wnw223911 0.0 1011438
11:00+8wnw362553 0.0 10082342
14:00+10nw462068 0.0 10062979
17:00+11nw4720100 0.0 10043151
20:00+8n472943 0.0 1004609
19 may, wed
wed1923:00+1nne2247100 0.0 100728
02:00−1nne115426 0.0 100810
05:00−3nnw11615 0.0 100810
08:00+4n123751 0.0 1008509
11:00+8nw2627100 0.0 10062630
14:00+9nnw4624100 0.0 10042802
17:00+9nnw4522100 0.0 10032687
20:00+7nne372999 0.0 1004430